GW1296 Weather Reports


time (UTC)temp
F
wind
direction
speed
knots
gust
knots
rain 1hr
in
rain 24hr
in
rain mn
in
humidity
%
barometer
mb
20260506050104 39 250 0.0 1.7 0.00 0.00 0.00 90 1016.7
20260506044553 38 250 0.0 1.7 0.00 0.00 0.00 90 1016.5
20260506044539 38 0 0.0 1.7 0.00 0.00 0.00 89 1015.4
20260506043051 39 250 0.0 0.0 0.00 0.00 0.00 89 1016.7
20260506043038 39 0 0.0 0.0 0.00 0.00 0.00 88 1015.6
20260506041555 39 0 0.0 0.0 0.00 0.00 0.00 88 1015.6
20260506041553 39 250 0.0 0.0 0.00 0.00 0.00 89 1016.7
20260506040051 39 250 0.0 0.0 0.00 0.00 0.00 89 1016.7
20260506040040 39 0 0.0 0.9 0.00 0.00 0.00 88 1015.5
20260506034547 39 250 0.0 1.7 0.00 0.00 0.00 88 1016.6
20260506034542 40 0 0.0 1.7 0.00 0.00 0.00 88 1015.6
20260506033045 40 250 0.0 1.7 0.00 0.00 0.00 87 1016.7
20260506033043 40 0 0.0 1.7 0.00 0.00 0.00 87 1015.6
20260506031542 41 250 0.0 1.7 0.00 0.00 0.00 86 1016.6
20260506031534 41 0 0.0 1.7 0.00 0.00 0.00 86 1015.5
20260506030056 41 250 0.0 1.7 0.00 0.00 0.00 86 1016.8
20260506030039 41 250 0.0 1.7 0.00 0.00 0.00 85 1015.6
20260506024549 41 250 0.9 1.7 0.00 0.00 0.00 85 1017.0
20260506024542 41 250 0.9 1.7 0.00 0.00 0.00 85 1015.8
20260506023035 42 248 0.9 2.6 0.00 0.00 0.00 84 1015.9
20260506021535 42 259 0.0 2.6 0.00 0.00 0.00 84 1015.9
20260506021533 42 259 0.0 2.6 0.00 0.00 0.00 84 1017.0
20260506020039 43 0 0.0 0.9 0.00 0.00 0.00 83 1016.0
20260506020032 43 260 0.0 0.9 0.00 0.00 0.00 84 1017.1
20260506014547 43 260 0.9 2.6 0.00 0.00 0.00 84 1016.1
20260506014527 43 260 0.9 2.6 0.00 0.00 0.00 84 1017.2
20260506013040 43 258 0.9 2.6 0.00 0.00 0.00 85 1016.2
20260506013025 43 258 0.0 2.6 0.00 0.00 0.00 85 1017.4
20260506011540 43 0 0.0 1.7 0.00 0.00 0.00 85 1016.3
20260506011534 43 243 0.0 1.7 0.00 0.00 0.00 86 1017.4
20260506010040 43 240 0.9 3.5 0.00 0.00 0.00 86 1016.3
20260506010022 43 240 0.9 3.5 0.00 0.00 0.00 87 1017.3
20260506004542 43 0 0.0 1.7 0.00 0.00 0.00 87 1016.4
20260506004540 43 30 0.0 0.9 0.00 0.00 0.00 87 1017.5
20260506003039 43 41 0.0 2.6 0.00 0.00 0.00 87 1016.3
20260506003026 43 41 0.0 2.6 0.00 0.00 0.00 88 1017.4
20260506001547 44 61 0.0 1.7 0.00 0.00 0.00 88 1016.3
20260506001522 44 61 0.0 1.7 0.00 0.00 0.00 88 1017.4
20260506000040 44 0 0.0 0.0 0.00 0.00 0.00 87 1016.4
20260506000023 44 61 0.0 0.0 0.00 0.00 0.00 88 1017.4
20260505234548 44 0 0.0 0.9 0.00 0.00 0.00 88 1016.4
20260505234518 44 61 0.0 0.9 0.00 0.00 0.00 89 1017.5
20260505233043 44 0 0.0 0.0 0.00 0.00 0.00 88 1016.4
20260505233017 44 61 0.0 0.0 0.00 0.00 0.00 89 1017.5
20260505231548 43 0 0.0 0.0 0.00 0.00 0.00 88 1016.5
20260505231522 43 61 0.0 0.0 0.00 0.00 0.00 89 1017.5
20260505230042 43 0 0.0 0.0 0.00 0.00 0.00 88 1016.4
20260505230014 43 61 0.0 0.0 0.00 0.00 0.00 88 1017.4
20260505224542 43 0 0.0 0.0 0.00 0.00 0.00 87 1016.4
20260505224512 43 61 0.0 0.0 0.00 0.00 0.00 87 1017.5
20260505223043 43 0 0.0 0.0 0.00 0.00 0.00 86 1016.4
20260505223011 43 61 0.0 0.0 0.00 0.00 0.00 87 1017.4
20260505221546 44 0 0.0 0.0 0.00 0.00 0.00 85 1016.4
20260505221509 44 61 0.0 0.0 0.00 0.00 0.00 86 1017.5
20260505220041 44 0 0.0 0.0 0.00 0.00 0.00 84 1016.4
20260505220008 44 61 0.0 0.0 0.00 0.00 0.00 85 1017.5
20260505214554 45 0 0.0 0.0 0.00 0.00 0.00 83 1016.3
20260505214505 45 61 0.0 0.0 0.00 0.00 0.00 84 1017.5
20260505213053 46 0 0.0 0.0 0.00 0.00 0.00 81 1016.3
20260505213006 46 61 0.0 0.0 0.00 0.00 0.00 82 1017.4
20260505211539 46 0 0.0 0.0 0.00 0.00 0.00 80 1016.3
20260505211504 46 61 0.0 0.0 0.00 0.00 0.00 81 1017.5
20260505210036 47 0 0.0 0.0 0.00 0.00 0.00 79 1016.3
20260505210002 47 61 0.0 0.0 0.00 0.00 0.00 80 1017.6
20260505204540 47 0 0.0 0.0 0.00 0.00 0.00 78 1016.3
20260505204502 47 61 0.0 0.0 0.00 0.00 0.00 79 1017.6
20260505203043 48 0 0.0 0.0 0.00 0.00 0.00 77 1016.3
20260505203006 48 61 0.0 0.0 0.00 0.00 0.00 78 1017.6
20260505201547 49 0 0.0 0.0 0.00 0.00 0.00 76 1016.2
20260505201501 49 61 0.0 0.0 0.00 0.00 0.00 76 1017.4
20260505200101 50 61 0.0 0.0 0.00 0.00 0.00 75 1017.4
20260505200040 50 0 0.0 0.0 0.00 0.00 0.00 74 1016.3
20260505194602 51 61 0.0 0.0 0.00 0.00 0.00 74 1017.5
20260505194541 51 0 0.0 0.0 0.00 0.00 0.00 73 1016.1
20260505193130 52 61 0.0 1.7 0.00 0.00 0.00 73 1017.2
20260505193046 52 0 0.0 1.7 0.00 0.00 0.00 72 1016.0
20260505191753 52 0 0.0 1.7 0.00 0.00 0.00 71 1015.9
20260505191606 52 61 0.0 0.9 0.00 0.00 0.00 71 1017.2
20260505190059 53 60 0.0 1.7 0.00 0.00 0.00 71 1017.1
20260505184602 53 57 0.0 1.7 0.00 0.00 0.00 70 1017.1
20260505183058 53 56 0.0 4.3 0.00 0.00 0.00 71 1017.1
20260505181557 54 93 1.7 4.3 0.00 0.00 0.00 69 1017.2
20260505180056 55 66 0.0 1.7 0.00 0.00 0.00 68 1017.1
20260505174556 55 111 0.0 1.7 0.00 0.00 0.00 68 1017.2
20260505174543 55 0 0.0 1.7 0.00 0.00 0.00 68 1016.0
20260505173054 54 128 0.0 2.6 0.00 0.00 0.00 68 1017.4
20260505173042 54 0 0.0 4.3 0.00 0.00 0.00 68 1016.1
20260505171554 55 58 0.0 4.3 0.00 0.00 0.00 68 1017.4
20260505171542 55 58 0.0 4.3 0.00 0.00 0.00 67 1016.0
20260505170054 56 125 0.9 3.5 0.00 0.00 0.00 67 1017.4
20260505170040 56 115 0.0 2.6 0.00 0.00 0.00 67 1016.0
20260505164549 54 24 0.0 2.6 0.00 0.00 0.00 70 1017.6
20260505164540 54 32 0.9 2.6 0.00 0.00 0.00 70 1016.2
20260505163048 52 76 0.9 3.5 0.00 0.00 0.00 71 1017.7
20260505163033 52 0 0.9 3.5 0.00 0.00 0.00 71 1016.3
20260505161547 52 117 0.0 3.5 0.00 0.00 0.00 73 1017.8
20260505161540 52 118 0.0 3.5 0.00 0.00 0.00 72 1016.4
20260505153048 53 135 0.9 3.5 0.00 0.00 0.00 73 1017.8
20260505153036 53 0 0.9 4.3 0.00 0.00 0.00 73 1016.5
20260505151544 53 65 2.6 5.2 0.00 0.00 0.00 75 1017.8
20260505151536 53 66 1.7 6.1 0.00 0.00 0.00 74 1016.5
20260505124536 53 69 0.9 7.8 0.00 0.00 0.00 72 1016.8
20260505124532 53 57 0.9 7.8 0.00 0.00 0.00 72 1017.8
20260505123049 52 15 1.7 6.1 0.00 0.00 0.00 71 1016.8
20260505123040 52 22 1.7 5.2 0.00 0.00 0.00 71 1018.0
20260505121535 52 60 0.9 5.2 0.00 0.00 0.00 74 1016.8
20260505121532 52 59 0.9 5.2 0.00 0.00 0.00 74 1018.0
20260505120048 51 95 0.9 3.5 0.00 0.00 0.00 79 1016.8
20260505120039 51 96 0.9 4.3 0.00 0.00 0.00 79 1018.0
20260505114551 51 86 0.9 3.5 0.00 0.00 0.00 80 1016.8
20260505114528 51 95 0.9 3.5 0.00 0.00 0.00 80 1018.0
20260505113128 51 61 0.9 4.3 0.00 0.00 0.00 80 1018.0
20260505113036 51 67 0.9 4.3 0.00 0.00 0.00 79 1016.9
20260505111533 52 0.9 4.3 0.00 0.00 0.00 79 1016.9
20260505101544 0 0.0 0.0 0.00 0.00 0.00 1016.8
20260505101529 53 291 0.9 2.6 0.00 0.00 0.00 72 1018.0
20260505100035 53 286 1.7 3.5 0.00 0.00 0.00 71 1017.1
20260505100030 53 284 1.7 4.3 0.00 0.00 0.00 72 1018.1
20260505094540 0 0.0 0.0 0.00 0.00 0.00 78 1017.1
20260505094521 52 350 0.9 5.2 0.00 0.00 0.00 78 1018.2
20260505093046 0 0.0 0.0 0.00 0.00 0.00 1017.1
20260505093017 51 281 0.9 4.3 0.00 0.00 0.00 80 1018.2
20260505091544 51 286 1.7 4.3 0.00 0.00 0.00 81 1017.1
20260505091513 51 355 0.9 4.3 0.00 0.00 0.00 81 1018.3
20260505090048 51 295 1.7 6.1 0.00 0.00 0.00 81 1017.1
20260505090008 51 314 1.7 5.2 0.00 0.00 0.00 81 1018.2
20260505084535 50 315 0.0 5.2 0.00 0.00 0.00 82 1017.1
20260505084511 50 281 0.9 5.2 0.00 0.00 0.00 83 1018.2
20260505083043 50 267 0.0 3.5 0.00 0.00 0.00 83 1017.1
20260505083015 50 267 0.0 3.5 0.00 0.00 0.00 84 1018.3
20260505081546 50 265 0.9 5.2 0.00 0.00 0.00 84 1017.1
20260505081504 50 261 0.9 5.2 0.00 0.00 0.00 84 1018.3
20260505080107 49 286 0.0 4.3 0.00 0.00 0.00 85 1018.3
20260505080050 49 0 0.0 5.2 0.00 0.00 0.00 84 1017.1
20260505074558 49 274 0.9 3.5 0.00 0.00 0.00 85 1018.2
20260505074539 49 263 0.9 3.5 0.00 0.00 0.00 85 1017.1
20260505073100 49 263 0.9 5.2 0.00 0.00 0.00 86 1018.2
20260505073050 49 263 0.9 5.2 0.00 0.00 0.00 85 1017.1
20260505071607 48 259 0.9 4.3 0.00 0.00 0.00 86 1018.2
20260505071534 48 259 0.9 4.3 0.00 0.00 0.00 86 1017.1
20260505070052 48 256 0.9 5.2 0.00 0.00 0.00 86 1018.3
20260505070050 48 255 1.7 5.2 0.00 0.00 0.00 85 1017.1
20260505064546 48 245 0.9 3.5 0.00 0.00 0.00 87 1018.3
20260505064532 48 245 0.9 3.5 0.00 0.00 0.00 86 1017.1
20260505063050 48 241 0.9 3.5 0.00 0.00 0.00 87 1018.3
20260505063034 48 255 0.9 3.5 0.00 0.00 0.00 87 1017.0
20260505061539 48 248 0.0 3.5 0.00 0.00 0.00 88 1018.1
20260505061536 48 0 0.0 3.5 0.00 0.00 0.00 87 1017.0
20260505060053 47 250 1.7 4.3 0.00 0.00 0.00 87 1018.1
20260505060036 47 241 1.7 4.3 0.00 0.00 0.00 87 1016.9
20260505054534 47 217 0.9 6.1 0.00 0.00 0.00 87 1017.1
20260505054532 47 224 0.9 6.1 0.00 0.00 0.00 88 1018.2
20260505053040 47 246 1.7 5.2 0.00 0.00 0.00 87 1017.1
20260505053029 47 247 1.7 5.2 0.00 0.00 0.00 88 1018.2